User: anonymous   Login
Location: Plum
(40.5000°N, 79.7500°W)
Time: 05:24:41
(UTC-04:00)
Language:

Cosmos 1825 - Orbit

View from above orbital plane
View from above orbital plane
View from above satellite
View from above satellite

Ground track
Ground track

The orbit data is extracted from the following two-line orbital elements,

1 17566U 87024A   15089.87487426  .00007769  00000-0  41130-3 0  9996
2 17566 082.5086 010.9405 0005483 126.8958 233.2778 15.15276136531114
Epoch (UTC): 30 March 2015 20:59:49
Eccentricity: 0.0005483
inclination: 82.5086°
perigee height: 516 km
apogee height: 524 km
right ascension of ascending node: 10.9405°
argument of perigee: 126.8958°
revolutions per day: 15.15276136
mean anomaly at epoch: 233.2778°
orbit number at epoch: 53111

The dashed part of the orbit path shows where the satellite is in the earth's shadow,  

DLR